KUIPER-00058

导读

KUIPER-00058是美国亚马逊柯伊伯星座项目下的一颗低轨通信卫星,于2025年6月23日发射升空,国际标识为2025-134U,目前在轨运行,已飞行172天。该卫星运行在近地轨道,轨道半长轴7007.62km,倾角51.9°,周期约97.3分钟。作为柯伊伯全球卫星互联网计划的组成部分,它将为全球提供高速低延迟的互联网接入服务,助力偏远地区联网,推动天地一体化信息网络建设。

Basic Information
目录编号:
64518
目录名称:
KUIPER-00058
国际标识:
2025-134U
轨道中心:
EARTH
卫星名称:
KUIPER-00058
卫星全名:
KUIPER-00058
卫星状态:
在轨 (已飞行355 天)
发射日期:
2025-06-23 UTC
国别 :
美国 (US)
星等 :
--
Orbit Information
数据来源 国际轨道数据 AOE轨道数据
星历时间 2026-06-12T13:56:38+0800
21小时前
查看轨道信息
2026-06-11T11:00:00+0800
2天前
查看轨道信息
半长轴 7007.661km 7007.699km
偏心率 0.0000429 0.000146
轨道倾角 51.899° 51.899°
近地点辐角 72.079° 40.596°
升交点赤经 167.406° 172.373°
平近点角 288.022° 94.576°
近地点 629.223km 628.538km
远地点 629.825km 630.586km
周期 97.301分钟 97.302分钟
每日圈数 14.799369 14.799247
Detailed Information
使用方式:
暂无
2D Orbit Map
3D Orbit Map
Orbit Altitude Analysis Chart
Orbit Inclination Analysis Chart
Orbit Comprehensive Analysis Chart
View Comprehensive Chart